#timestamp,LO_Frequency,Hit 
1504760415.8,286047002.6,N
1504760435.7,286047002.6,N
1504760455.5,286047002.6,N
1504760475.3,286047002.0,N
1504760495.2,286047001.8,N
1504760515.9,286047001.4,N
1504760535.7,286047004.4,N
1504760555.6,286047003.9,N
1504760575.4,286047004.2,N
1504760595.2,286047003.8,N
1504760615.1,286047003.6,N
1504760616.0,286047003.6,N
1504760635.8,286047003.1,N
1504760655.6,286047003.3,N
1504760675.5,286047006.0,P
1504760695.3,286047004.2,N
1504760715.1,286047003.6,N
1504760735.9,286047003.4,N
1504760755.7,286047003.0,N
1504760775.5,286047006.0,P
1504760795.4,286046999.8,N
1504760815.2,286046999.7,N
1504760835.0,286047002.8,N
1504760835.9,286047002.8,N
1504760855.8,286047002.7,N
1504760875.6,286047002.5,N
1504760895.4,286047002.1,N
1504760915.2,286047001.9,N
1504760935.1,286047004.0,N
1504760936.0,286047004.0,N
1504760955.8,286047004.2,N
1504760975.6,286047003.8,N
1504760995.5,286047003.7,N
1504761015.3,286047003.5,N
1504761035.1,286047003.2,N
1504761055.9,286047003.4,N
1504761075.7,286047003.3,N
1504761095.5,286047006.0,P
1504761115.4,286047002.3,N
1504761135.2,286047002.6,N
1504761155.0,286047002.3,N
1504761155.9,286047002.3,N
1504761175.8,286047002.8,N
1504761195.6,286047002.7,N
1504761215.4,286047002.5,N
1504761235.3,286047001.9,N
1504761255.1,286047002.2,N
1504761256.0,286047002.2,N
1504761275.8,286047002.1,N
1504761295.7,286047001.9,N
1504761315.5,286047001.9,N
1504761335.3,286047002.0,N
1504761355.2,286047001.8,N
1504761375.9,286047001.5,N
1504761395.7,286047001.7,N
1504761415.6,286047004.4,P
1504761435.4,286046999.9,N
1504761455.2,286047000.1,N
1504761475.1,286046999.7,N
1504761476.0,286046999.7,N
1504761495.8,286047002.3,N
1504761515.6,286047002.2,N
1504761535.4,286047002.0,N
1504761555.3,286047001.5,N
1504761575.1,286047001.8,N
1504761595.8,286047001.3,N
1504761615.7,286047004.3,P
1504761635.5,286047002.6,N
1504761655.3,286047002.1,N
1504761675.2,286047002.2,N
1504761695.0,286047002.2,N
1504761695.9,286047002.2,N
1504761715.7,286047002.0,N
1504761735.6,286047001.6,N
1504761755.4,286047001.9,N
1504761775.2,286047001.9,N
1504761795.1,286047001.5,N
1504761796.0,286047001.5,N
1504761815.8,286047001.6,N
1504761835.6,286047001.5,N
1504761855.5,286047001.8,N
1504761875.3,286047001.7,N
1504761895.1,286047001.3,N
1504761915.9,286047004.3,P
1504761935.7,286047002.8,N
1504761955.5,286047002.8,N
1504761975.4,286047002.4,N
1504761995.2,286047002.7,P
1504762015.0,286046999.3,P
1504762015.9,286046999.3,N
1504762035.8,286046999.3,N
1504762055.6,286046998.9,N
1504762075.4,286046998.7,N
1504762095.3,286046998.3,N
1504762115.1,286046998.6,N
1504762116.0,286046998.6,N
1504762135.8,286046998.6,N
1504762155.7,286046998.1,N
1504762175.5,286047001.1,N
1504762195.3,286047000.8,N
1504762215.1,286047000.7,N
1504762235.9,286047000.8,N
1504762255.7,286047000.8,N
1504762275.5,286047000.8,N
1504762295.4,286047000.7,N
1504762315.2,286047000.7,N
1504762335.0,286047000.6,N
1504762335.9,286047000.6,N
1504762355.8,286047000.6,N
1504762375.6,286047000.5,N
1504762395.4,286047000.3,N
1504762415.3,286047000.3,N
1504762435.1,286047000.4,N
1504762436.0,286047000.4,N
1504762455.8,286047000.4,N
1504762475.7,286047000.0,N
1504762495.5,286047000.2,N
1504762515.3,286047000.2,N
1504762535.1,286047000.1,N
1504762555.9,286046999.7,N
1504762575.7,286046999.7,N
1504762595.5,286046999.8,N
1504762615.4,286047002.8,P
1504762635.2,286047002.8,N
1504762655.0,286047002.7,N
1504762656.0,286047002.7,N
1504762675.8,286047002.4,N
1504762695.6,286047002.7,N
1504762715.4,286047002.3,N
1504762735.3,286047002.4,N
1504762755.1,286047002.7,P
1504762775.9,286046998.4,P
1504762795.7,286046998.2,N
1504762815.5,286046998.2,N
1504762835.3,286047001.2,N
1504762855.2,286047000.7,N
1504762875.0,286047000.8,N
1504762875.9,286047000.8,N
1504762895.7,286047001.0,N
1504762915.6,286047000.7,N
1504762935.4,286047000.6,N
1504762955.2,286047000.5,N
1504762975.1,286047000.4,N
1504762976.0,286047000.4,N
1504762995.8,286047000.6,N
1504763015.6,286047000.9,N
1504763035.5,286047000.5,N
1504763055.3,286047000.3,N
1504763075.1,286046999.9,N
1504763095.9,286047000.0,N
1504763115.7,286047000.0,N
1504763135.5,286047000.5,N
1504763155.3,286047000.4,N
1504763175.2,286047000.3,N
1504763195.0,286047000.0,N
1504763195.9,286047000.0,N
1504763215.7,286047000.0,N
1504763235.6,286047000.2,N
1504763255.4,286046999.8,N
1504763275.2,286047002.3,N
1504763295.1,286047002.6,N
1504763296.0,286047002.6,N
1504763315.8,286047002.6,N
1504763335.6,286047002.3,N
1504763355.5,286047002.4,N
1504763375.3,286047002.7,P
1504763395.1,286047000.0,N
1504763415.9,286047000.4,N
1504763435.3,286046999.9,N
1504763455.1,286047000.2,N
1504763475.9,286047000.2,N
1504763495.7,286047000.0,N
1504763515.5,286047000.7,N
1504763535.4,286047001.1,N
1504763555.2,286047000.8,N
1504763575.0,286047000.8,N
1504763575.9,286047000.8,N
1504763595.8,286047001.1,N
1504763615.6,286047000.8,N
1504763635.4,286046998.1,N
1504763655.2,286046998.2,N
1504763675.1,286046998.2,N
1504763676.0,286046998.2,N
1504763695.8,286046998.2,N
1504763715.6,286046998.2,N
1504763735.5,286046998.6,N
1504763755.3,286046998.6,N
1504763775.1,286046998.6,N
1504763795.9,286046998.5,N
1504763815.7,286046998.4,N
1504763835.5,286046998.4,N
1504763855.4,286046998.8,N
1504763875.2,286046998.7,N
1504763895.0,286046998.7,N
1504763895.9,286046998.7,N
1504763915.8,286046999.0,N
1504763935.6,286046999.0,N
1504763955.4,286046999.1,N
1504763975.3,286046999.4,N
1504763995.1,286046999.4,N
1504763996.0,286046999.4,N
